TimeIST,TemperatureF,Dew PointF,Humidity,Sea Level PressureIn,VisibilityMPH,Wind Direction,Wind SpeedMPH,Gust SpeedMPH,PrecipitationIn,Events,Conditions,WindDirDegrees,DateUTC
12:00 AM,78.8,75.2,89,29.65,1.9,Calm,Calm,-,N/A,,Scattered Clouds,0,2012-10-03 18:30:00
1:00 AM,78.8,73.4,83,29.62,1.9,Calm,Calm,-,N/A,,Scattered Clouds,0,2012-10-03 19:30:00
2:00 AM,77.0,73.4,89,29.59,1.9,Calm,Calm,-,N/A,,Scattered Clouds,0,2012-10-03 20:30:00
2:30 AM,77,73,84,29.61,1,Calm,Calm,,,,Mist,,2012-10-03 21:00:00
3:00 AM,77.0,73.4,89,29.59,1.9,Calm,Calm,-,N/A,,Scattered Clouds,0,2012-10-03 21:30:00
4:00 AM,77.0,73.4,89,29.59,1.9,Calm,Calm,-,N/A,,Scattered Clouds,0,2012-10-03 22:30:00
5:00 AM,77.0,73.4,89,29.59,1.9,Calm,Calm,-,N/A,,Scattered Clouds,0,2012-10-03 23:30:00
5:30 AM,75.2,73.4,94,29.59,1.9,Calm,Calm,-,N/A,,Scattered Clouds,0,2012-10-04 00:00:00
6:00 AM,75.2,73.4,94,29.59,1.2,Calm,Calm,-,N/A,,Scattered Clouds,0,2012-10-04 00:30:00
6:30 AM,75.2,71.6,89,29.62,1.2,Calm,Calm,-,N/A,,Mostly Cloudy,0,2012-10-04 01:00:00
7:00 AM,77.0,73.4,89,29.62,1.2,Calm,Calm,-,N/A,,Mostly Cloudy,0,2012-10-04 01:30:00
8:00 AM,77.0,73.4,89,29.65,1.2,Variable,2.3,-,N/A,,Mostly Cloudy,0,2012-10-04 02:30:00
8:30 AM,80,77,86,29.66,2,West,3.5,,,,Mist,270,2012-10-04 03:00:00
8:30 AM,80.6,77.0,89,29.65,1.4,West,3.5,-,N/A,,Scattered Clouds,270,2012-10-04 03:00:00
9:00 AM,82.4,77.0,84,29.65,1.6,West,3.5,-,N/A,,Haze,260,2012-10-04 03:30:00
9:30 AM,84.2,77.0,79,29.68,1.6,West,3.5,-,N/A,,Haze,260,2012-10-04 04:00:00
10:30 AM,87.8,77.0,70,29.65,2.5,WNW,5.8,-,N/A,,Haze,290,2012-10-04 05:00:00
11:00 AM,87.8,77.0,70,29.65,2.5,WNW,8.1,-,N/A,,Haze,290,2012-10-04 05:30:00
11:30 AM,90,75,54,29.66,2,WNW,9.2,,,,Haze,290,2012-10-04 06:00:00
11:30 AM,89.6,75.2,62,29.65,2.5,WNW,9.2,-,N/A,,Haze,290,2012-10-04 06:00:00
12:00 PM,91.4,77.0,63,29.65,2.5,NW,11.5,-,N/A,,Haze,310,2012-10-04 06:30:00
12:30 PM,91.4,73.4,55,29.62,2.8,NW,11.5,-,N/A,,Haze,320,2012-10-04 07:00:00
2:00 PM,91.4,73.4,55,29.59,3.1,NW,9.2,-,N/A,,Haze,320,2012-10-04 08:30:00
2:30 PM,92,63,28,29.59,2,NW,9.2,,,,Haze,320,2012-10-04 09:00:00
3:00 PM,91.4,62.6,38,29.59,3.1,NW,9.2,-,N/A,,Haze,320,2012-10-04 09:30:00
4:00 PM,91.4,64.4,41,29.56,3.1,NW,11.5,-,N/A,,Haze,320,2012-10-04 10:30:00
4:30 PM,91.4,64.4,41,29.56,3.1,NW,9.2,-,N/A,,Haze,320,2012-10-04 11:00:00
5:00 PM,91.4,66.2,43,29.56,3.1,NW,4.6,-,N/A,,Haze,320,2012-10-04 11:30:00
5:30 PM,89.6,71.6,55,29.59,3.1,NW,4.6,-,N/A,,Haze,310,2012-10-04 12:00:00
6:00 PM,87.8,71.6,58,29.59,3.1,WNW,3.5,-,N/A,,Haze,300,2012-10-04 12:30:00
6:30 PM,84.2,69.8,62,29.59,3.1,Variable,2.3,-,N/A,,Haze,0,2012-10-04 13:00:00
7:00 PM,82.4,69.8,66,29.62,3.1,Variable,2.3,-,N/A,,Haze,0,2012-10-04 13:30:00
7:30 PM,82.4,69.8,66,29.62,3.1,Calm,Calm,-,N/A,,Haze,0,2012-10-04 14:00:00
8:00 PM,80.6,69.8,70,29.62,3.1,Calm,Calm,-,N/A,,Haze,0,2012-10-04 14:30:00
8:30 PM,78.8,71.6,78,29.65,3.1,Calm,Calm,-,N/A,,Haze,0,2012-10-04 15:00:00
9:00 PM,78.8,71.6,78,29.65,3.1,Calm,Calm,-,N/A,,Haze,0,2012-10-04 15:30:00
10:00 PM,78.8,69.8,74,29.65,2.5,Calm,Calm,-,N/A,,Haze,0,2012-10-04 16:30:00
11:00 PM,77.0,69.8,78,29.65,3.1,Calm,Calm,-,N/A,,Haze,0,2012-10-04 17:30:00